Change the Weather History Date:

Thursday, May 2, 2013

  Actual Average Record
Temperature  
Mean Temperature 45 °F -  
Max Temperature 55 °F 63 °F 87 °F (1992)
Min Temperature 35 °F 41 °F 28 °F (1950)
Degree Days  
Heating Degree Days 20    
Moisture  
Dew Point 37 °F    
Average Humidity 81    
Maximum Humidity 100    
Minimum Humidity 58    
Precipitation  
Precipitation 0.47 in - - ()
Sea Level Pressure  
Sea Level Pressure 30.23 in    
Wind  
Wind Speed 12 mph (NNE)    
Max Wind Speed 17 mph    
Max Gust Speed 23 mph    
Visibility 9 miles    
Events Rain , Thunderstorm    
Averages and records for this station are not official NWS values.
T = Trace of Precipitation, MM = Missing Value Source: NWS Daily Summary

Daily Weather History Graph

Daily Weather History Graph

Search for Another Location

Airport or City:

Trip Planner

Search our weather history database for the weather conditions in past years. The results will help you decide how hot, cold, wet, or windy it might be!

Date:

Astronomy

May. 02, 2013 Rise Set
Actual Time 5:45 AM CDT 7:55 PM CDT
Civil Twilight 5:13 AM CDT 8:26 PM CDT
Nautical Twilight 4:35 AM CDT 9:05 PM CDT
Astronomical Twilight 3:53 AM CDT 9:48 PM CDT
Moon 1:43 AM CDT (5/2) 12:33 PM CDT (5/2)
Length of Visible Light 15h 13m
Length of Day
14h 10m
Waning Gibbous, 47% of the Moon is Illuminated
May 2
Waning Gibbous
May 9
New
May 17
First Quarter
May 24
Full
May 31
Last Quarter

Hourly Weather History & Observations

Time (CDT) Temp. Windchill Dew Point Humidity Pressure Visibility Wind Dir Wind Speed Gust Speed Precip Events Conditions
12:15 AM 46.4 °F 39.8 °F 37.4 °F 71% 30.23 in 10.0 mi NE 16.1 mph 19.6 mph N/A   Mostly Cloudy
12:35 AM 44.6 °F 38.8 °F 37.4 °F 76% 30.23 in 10.0 mi NNE 11.5 mph 19.6 mph N/A   Clear
12:55 AM 44.6 °F 38.8 °F 35.6 °F 71% 30.23 in 10.0 mi NNE 11.5 mph - N/A   Clear
1:35 AM 42.8 °F 37.0 °F 35.6 °F 76% 30.23 in 10.0 mi NE 10.4 mph - N/A   Clear
1:55 AM 42.8 °F 36.6 °F 35.6 °F 76% 30.23 in 10.0 mi NNE 11.5 mph 16.1 mph N/A   Clear
2:15 AM 42.8 °F 35.4 °F 35.6 °F 76% 30.23 in 10.0 mi NE 15.0 mph 23.0 mph N/A   Clear
2:35 AM 42.8 °F 36.2 °F 33.8 °F 70% 30.23 in 10.0 mi NE 12.7 mph 21.9 mph N/A   Clear
2:55 AM 42.8 °F 36.2 °F 33.8 °F 70% 30.23 in 10.0 mi NNE 12.7 mph 20.7 mph N/A   Clear
3:15 AM 41.0 °F 34.3 °F 33.8 °F 76% 30.23 in 10.0 mi NE 11.5 mph 18.4 mph N/A   Scattered Clouds
3:35 AM 41.0 °F 33.9 °F 33.8 °F 76% 30.23 in 10.0 mi NNE 12.7 mph 18.4 mph N/A   Mostly Cloudy
3:55 AM 41.0 °F 34.7 °F 33.8 °F 76% 30.23 in 10.0 mi NNE 10.4 mph 16.1 mph N/A   Scattered Clouds
4:15 AM 41.0 °F 33.9 °F 33.8 °F 76% 30.22 in 10.0 mi NE 12.7 mph - N/A   Clear
4:35 AM 41.0 °F 35.2 °F 33.8 °F 76% 30.23 in 10.0 mi NNE 9.2 mph 18.4 mph N/A   Clear
4:55 AM 41.0 °F 35.8 °F 33.8 °F 76% 30.23 in 10.0 mi NNE 8.1 mph - N/A   Clear
5:15 AM 41.0 °F 34.3 °F 33.8 °F 76% 30.23 in 10.0 mi NE 11.5 mph 18.4 mph N/A   Clear
5:35 AM 41.0 °F 35.8 °F 33.8 °F 76% 30.23 in 10.0 mi NNE 8.1 mph - N/A   Clear
5:45 AM 39.2 °F 31.2 °F 33.8 °F 81% 30.23 in 10.0 mi NE 13.8 mph - N/A   Clear
6:45 AM 41.0 °F 33.5 °F 33.8 °F 76% 30.25 in 10.0 mi NE 13.8 mph - N/A   Clear
7:45 AM 42.8 °F 34.8 °F 35.6 °F 76% 30.26 in 10.0 mi NE 17.3 mph - N/A   Clear
8:45 AM 46.4 °F 41.1 °F 35.6 °F 66% 30.26 in 10.0 mi NE 11.5 mph - N/A   Clear
9:45 AM 48.2 °F - 37.4 °F 66% 30.26 in 10.0 mi NNE 13.8 mph - N/A   Clear
10:45 AM 51.8 °F - 39.2 °F 62% 30.26 in 10.0 mi NNE 11.5 mph - N/A   Clear
11:45 AM 53.6 °F - 39.2 °F 58% 30.24 in 10.0 mi NNE 11.5 mph - N/A   Scattered Clouds
12:45 PM 55.4 °F - 41.0 °F 58% 30.22 in 10.0 mi North 8.1 mph - N/A   Scattered Clouds
1:10 PM 53.6 °F - 42.8 °F 67% 30.25 in 10.0 mi NNW 8.1 mph - N/A Rain , Thunderstorm Light Thunderstorms and Rain
1:45 PM 51.8 °F - 46.4 °F 82% 30.22 in 3.0 mi North 8.1 mph - N/A Rain Rain
2:45 PM 46.4 °F 43.5 °F 42.8 °F 87% 30.20 in 10.0 mi ENE 5.8 mph - N/A Rain Light Rain
3:45 PM 44.6 °F - 42.8 °F 93% 30.22 in 10.0 mi Calm Calm - N/A   Overcast
4:45 PM 46.4 °F 44.3 °F 42.8 °F 87% 30.20 in 10.0 mi NE 4.6 mph - N/A   Overcast
5:45 PM 46.4 °F 41.1 °F 44.6 °F 93% 30.20 in 10.0 mi North 11.5 mph - N/A   Overcast
6:45 PM 46.4 °F 41.1 °F 44.6 °F 93% 30.20 in 10.0 mi North 11.5 mph - N/A   Overcast
7:45 PM 46.4 °F 41.1 °F 42.8 °F 87% 30.23 in 7.0 mi North 11.5 mph - N/A   Overcast
8:20 PM 41.0 °F 34.7 °F 39.2 °F 93% 30.24 in 2.5 mi North 10.4 mph - N/A Rain Heavy Rain
8:45 PM 41.0 °F 35.8 °F 39.2 °F 93% 30.23 in 4.0 mi NNW 8.1 mph - N/A Rain Light Rain
9:15 PM 37.4 °F 28.9 °F 37.4 °F 100% 30.21 in 7.0 mi North 13.8 mph - 0.03 in Rain Light Rain
9:35 PM 37.4 °F 30.8 °F 35.6 °F 93% 30.22 in 10.0 mi North 9.2 mph 16.1 mph 0.04 in Rain Light Rain
9:55 PM 37.4 °F 28.9 °F 35.6 °F 93% 30.20 in 10.0 mi North 13.8 mph - 0.04 in Rain Light Rain
10:15 PM 37.4 °F 28.5 °F 35.6 °F 93% 30.21 in 3.0 mi North 15.0 mph 18.4 mph 0.09 in Rain Heavy Rain
10:35 PM 35.6 °F 29.9 °F 35.6 °F 100% 30.23 in 2.0 mi NNE 6.9 mph - 0.30 in Rain Light Rain
10:55 PM 35.6 °F 27.5 °F 35.6 °F 100% 30.20 in 7.0 mi NNE 11.5 mph - 0.32 in Rain Light Rain
11:15 PM 35.6 °F 28.6 °F 35.6 °F 100% 30.22 in 5.0 mi North 9.2 mph - 0.04 in Rain Rain
11:35 PM 35.6 °F 28.6 °F 35.6 °F 100% 30.21 in 10.0 mi North 9.2 mph - 0.06 in Rain Rain
11:55 PM 35.6 °F 28.0 °F 35.6 °F 100% 30.20 in 4.0 mi North 10.4 mph - 0.11 in Rain Heavy Rain